COSMOS 1275 DEB, 42172

Orbit data source: Space-Track

COSMOS 1275 DEB, 42172 is space debris in LEO originally from a launch on Thu, 04 Jun 1981 UTC launched from the Plesetsk Missile And Space Complex (PKMTR). Debris objects in space refer to the collection of defunct objects orbiting the Earth. Examples of debris include non-operational satellites, rocket bodies, and fragments generated from explosions, collisions, or faulty payload assembly.

Loading next visibility...
Identifier
42172, 1981-053SL
Orbit
LEO
Country
Flag of CISCIS
Related business
Manufacturer
Unknown
Mission
Spacecraft
Bus & Motor
Unknown
Mass
Unknown
Launch date (UTC)
1981-06-04 (45 years ago)
Launch vehicle
Unknown
Launch site
Plesetsk Missile And Space Complex (PKMTR)
Object type
Payload
Rocket body
Debris
Shape & HBR
Unknown shape, 0.1 m
Radar Cross Section
Small (<0.1 m²)

Expand to show TLE details & history
Last TLE update: 3 days ago

TLE from 3 days ago
0 COSMOS 1275 DEB
1 42172U 81053SL  26070.17906977  .00003530  00000-0  19465-2 0  9992
2 42172  82.9450  23.1769 0068921 305.9453  53.5341 14.10098612629537
Epoch: 2026-03-11T04:17Z
TLE epoch observation values (Epoch: 2026-03-11T04:17:51.628Z)
Latitude
0.00001°
Longitude
149.86476°
Altitude
832.556 km
Speed
7.452 km/s
True Right ascension
01h 32m 42s
True Declination
0° 00' 00"
Sunlit
Object was in daylight at epoch
Visualization orbit readout
Latitude
Unknown
Longitude
Unknown
Altitude
Unknown
Speed
Unknown
Apparent Right ascension
Unknown
Apparent Declination
Unknown
Sunlit
N/A
Visualization observer readout
Local Sidereal Time
10:18:34
Azimuth
Unknown
Elevation
Unknown
Doppler factor
Unknown
Orbital elements
Apogee altitude
905.994 km
Perigee altitude
806.275 km
Semi-major axis
7,234.271 km
Eccentricity
0.00689
Inclination
82.945°
RAAN
23.1769°
Arg. of periapsis
305.9453°
True anomaly
54.1725°
Mean anomaly
53.5341°
Eccentric anomaly
53.85297°
Mean motion
3.52737 °/min
Orbital period
102.06 mins
BSTAR
0.0019465
Loading maneuver chart data...
Computing Atmospheric mass density...
Loading historical data...
Loading historical data...
Loading historical data...
Loading historical data...
Loading historical data...
Loading historical data...
Loading historical data...

Documentation

Showing up to 5 results
|